Weather History for Reidsville, NC

Change the Weather History Date:

Sunday, January 19, 2014

  Actual Average (KGSO) Record (KGSO)
Temperature  
Mean Temperature 37 °F 39 °F  
Max Temperature 51 °F 48 °F 69 °F (1907)
Min Temperature 24 °F 29 °F -1 °F (1994)
Degree Days  
Heating Degree Days 28 26  
Month to date heating degree days 494  
Since 1 July heating degree days 1908  
Cooling Degree Days 0 0  
Month to date cooling degree days 0  
Year to date cooling degree days 0  
Moisture  
Dew Point 21 °F    
Average Humidity 56    
Maximum Humidity 77    
Minimum Humidity 38    
Precipitation  
Precipitation 0.00 in 0.10 in 2.02 in (1936)
Month to date precipitation 1.91  
Year to date precipitation 1.91  
Snow  
Snow 0.00 in 0.10 in 7.30 in (1955)
Month to date snowfall 2.1  
Since 1 July snowfall 3.0  
Snow Depth -    
Sea Level Pressure  
Sea Level Pressure 29.92 in    
Wind  
Wind Speed 4 mph (WSW)    
Max Wind Speed 16 mph    
Max Gust Speed 24 mph    
Visibility 10 miles    
Events      
T = Trace of Precipitation, MM = Missing Value Source: NWS Daily Summary

Daily Weather History Graph

Daily Weather History Graph

Search for Another Location

Airport:

Trip Planner

Search our weather history database for the weather conditions in past years. The results will help you decide how hot, cold, wet, or windy it might be!

Date:

Astronomy

Jan. 19, 2014 Rise Set
Actual Time 7:28 AM EST 5:31 PM EST
Civil Twilight 7:01 AM EST 5:59 PM EST
Nautical Twilight 6:29 AM EST 6:31 PM EST
Astronomical Twilight 5:58 AM EST 7:01 PM EST
Moon 9:01 PM EST 9:04 AM EST
Length of Visible Light 10h 58m
Length of Day
10h 02m
Waning Gibbous, 89% of the Moon is Illuminated
Jan 19
Waning Gibbous
Jan 24
Last Quarter
Jan 30
New
Feb 6
First Quarter
Feb 14
Full

Hourly Weather History & Observations

Time (EST) Temp. Windchill Dew Point Humidity Pressure Visibility Wind Dir Wind Speed Gust Speed Precip Events Conditions
12:15 AM 26.4 °F - 18.1 °F 71% 29.95 in 10.0 mi Calm Calm - N/A   Clear
12:35 AM 26.6 °F - 18.5 °F 71% 29.95 in 10.0 mi Calm Calm - N/A   Scattered Clouds
12:55 AM 27.0 °F - 20.1 °F 75% 29.94 in 10.0 mi Calm Calm - N/A   Mostly Cloudy
1:15 AM 27.5 °F - 21.0 °F 77% 29.94 in 10.0 mi Calm Calm - N/A   Scattered Clouds
1:35 AM 27.7 °F - 19.8 °F 72% 29.93 in 10.0 mi Calm Calm - N/A   Clear
1:55 AM 28.6 °F - 20.5 °F 72% 29.93 in 10.0 mi Calm Calm - N/A   Mostly Cloudy
2:15 AM 29.1 °F - 20.5 °F 70% 29.93 in 10.0 mi Calm Calm - N/A   Overcast
2:35 AM 29.3 °F - 20.7 °F 70% 29.92 in 10.0 mi Calm Calm - N/A   Overcast
2:55 AM 30.2 °F 26.7 °F 18.5 °F 62% 29.92 in 10.0 mi WSW 3.5 mph - N/A   Overcast
3:15 AM 30.6 °F 25.8 °F 17.6 °F 59% 29.93 in 10.0 mi WSW 4.6 mph - N/A   Mostly Cloudy
3:35 AM 29.7 °F - 17.4 °F 60% 29.92 in 10.0 mi Calm Calm - N/A   Scattered Clouds
3:55 AM 29.1 °F 25.4 °F 17.6 °F 62% 29.92 in 10.0 mi WSW 3.5 mph - N/A   Clear
4:15 AM 29.7 °F 26.1 °F 17.4 °F 60% 29.91 in 10.0 mi SSW 3.5 mph - N/A   Clear
4:35 AM 28.2 °F 24.4 °F 19.4 °F 70% 29.91 in 10.0 mi SW 3.5 mph - N/A   Clear
4:55 AM 27.1 °F 23.2 °F 17.6 °F 67% 29.91 in 10.0 mi West 3.5 mph - N/A   Clear
5:15 AM 26.2 °F 22.1 °F 17.6 °F 70% 29.90 in 10.0 mi SW 3.5 mph - N/A   Clear
5:35 AM 27.0 °F 21.6 °F 17.4 °F 67% 29.90 in 10.0 mi SW 4.6 mph - N/A   Clear
5:55 AM 27.9 °F 24.0 °F 16.9 °F 63% 29.89 in 10.0 mi WSW 3.5 mph - N/A   Clear
6:15 AM 27.1 °F 21.8 °F 17.2 °F 66% 29.90 in 10.0 mi SW 4.6 mph - N/A   Clear
6:35 AM 27.0 °F 23.0 °F 16.7 °F 65% 29.91 in 10.0 mi West 3.5 mph - N/A   Clear
6:55 AM 26.2 °F - 16.7 °F 67% 29.90 in 10.0 mi Calm Calm - N/A   Clear
7:15 AM 24.3 °F - 16.7 °F 73% 29.91 in 10.0 mi Calm Calm - N/A   Clear
7:35 AM 25.5 °F 19.9 °F 17.2 °F 71% 29.92 in 10.0 mi SSW 4.6 mph - N/A   Clear
7:55 AM 26.2 °F 22.1 °F 17.2 °F 69% 29.91 in 10.0 mi SW 3.5 mph - N/A   Clear
8:15 AM 28.8 °F 22.6 °F 17.6 °F 63% 29.92 in 10.0 mi WSW 5.8 mph - N/A   Clear
8:35 AM 30.0 °F 23.2 °F 17.4 °F 59% 29.92 in 10.0 mi SW 6.9 mph - N/A   Clear
8:55 AM 31.3 °F 24.7 °F 18.1 °F 58% 29.93 in 10.0 mi SW 6.9 mph - N/A   Clear
9:15 AM 32.0 °F 25.6 °F 18.5 °F 58% 29.93 in 10.0 mi SW 6.9 mph - N/A   Clear
9:35 AM 33.1 °F 26.9 °F 18.3 °F 55% 29.94 in 10.0 mi SW 6.9 mph - N/A   Clear
9:55 AM 34.9 °F 26.6 °F 18.0 °F 50% 29.94 in 10.0 mi SW 11.5 mph - N/A   Clear
10:15 AM 36.9 °F 30.7 °F 18.3 °F 47% 29.94 in 10.0 mi SW 8.1 mph - N/A   Clear
10:35 AM 38.1 °F 32.9 °F 18.5 °F 45% 29.94 in 10.0 mi SW 6.9 mph - N/A   Clear
10:55 AM 40.1 °F 35.3 °F 18.9 °F 43% 29.94 in 10.0 mi SW 6.9 mph - N/A   Clear
11:15 AM 41.9 °F 36.9 °F 20.3 °F 42% 29.94 in 10.0 mi SSW 8.1 mph - N/A   Clear
11:35 AM 43.2 °F 39.7 °F 20.8 °F 41% 29.94 in 10.0 mi SSW 5.8 mph - N/A   Clear
11:55 AM 45.5 °F 41.3 °F 22.8 °F 41% 29.93 in 10.0 mi WSW 8.1 mph - N/A   Clear
12:15 PM 47.1 °F - 24.1 °F 40% 29.92 in 10.0 mi SW 8.1 mph 16.1 mph N/A   Clear
12:35 PM 48.6 °F - 25.3 °F 40% 29.91 in 10.0 mi WSW 12.7 mph - N/A   Scattered Clouds
12:55 PM 47.3 °F - 25.0 °F 42% 29.90 in 10.0 mi WSW 10.4 mph 17.3 mph N/A   Mostly Cloudy
1:15 PM 48.0 °F - 26.1 °F 42% 29.90 in 10.0 mi West 16.1 mph 21.9 mph N/A   Mostly Cloudy
1:35 PM 49.5 °F - 26.2 °F 40% 29.90 in 10.0 mi WNW 12.7 mph 21.9 mph N/A   Mostly Cloudy
1:55 PM 50.5 °F - 25.7 °F 38% 29.89 in 10.0 mi West 9.2 mph 24.2 mph N/A   Mostly Cloudy
2:15 PM 50.7 °F - 25.5 °F 38% 29.89 in 10.0 mi West 13.8 mph 24.2 mph N/A   Scattered Clouds
2:35 PM 50.2 °F - 25.5 °F 38% 29.89 in 10.0 mi WNW 11.5 mph 21.9 mph N/A   Scattered Clouds
2:55 PM 49.5 °F - 25.7 °F 40% 29.90 in 10.0 mi WNW 9.2 mph - N/A   Clear
3:15 PM 49.6 °F - 25.7 °F 39% 29.91 in 10.0 mi WNW 10.4 mph 18.4 mph N/A   Clear
3:35 PM 49.5 °F - 25.2 °F 39% 29.91 in 10.0 mi WNW 10.4 mph 16.1 mph N/A   Clear
3:55 PM 49.3 °F - 25.0 °F 39% 29.91 in 10.0 mi West 8.1 mph - N/A   Clear
4:15 PM 48.4 °F - 25.0 °F 40% 29.92 in 10.0 mi West 11.5 mph 16.1 mph N/A   Clear
4:35 PM 47.7 °F - 24.4 °F 40% 29.92 in 10.0 mi WNW 9.2 mph 18.4 mph N/A   Clear
4:55 PM 47.1 °F - 24.6 °F 41% 29.93 in 10.0 mi West 8.1 mph 16.1 mph N/A   Clear
5:15 PM 45.9 °F 41.7 °F 23.7 °F 42% 29.94 in 10.0 mi West 8.1 mph - N/A   Clear
5:35 PM 44.6 °F 40.7 °F 23.5 °F 44% 29.94 in 10.0 mi WSW 6.9 mph - N/A   Clear
5:55 PM 43.5 °F - 23.7 °F 46% 29.94 in 10.0 mi Calm Calm - N/A   Clear
6:15 PM 39.4 °F - 23.9 °F 54% 29.94 in 10.0 mi Calm Calm - N/A   Clear
6:35 PM 36.7 °F - 23.7 °F 59% 29.94 in 10.0 mi Calm Calm - N/A   Clear
6:55 PM 35.2 °F - 23.7 °F 63% 29.94 in 10.0 mi Calm Calm - N/A   Clear
7:15 PM 36.1 °F 33.5 °F 24.4 °F 63% 29.93 in 10.0 mi WSW 3.5 mph - N/A   Clear
7:35 PM 35.6 °F 30.7 °F 24.1 °F 63% 29.93 in 10.0 mi SSW 5.8 mph - N/A   Clear
7:55 PM 34.5 °F - 23.5 °F 64% 29.93 in 7.0 mi Calm Calm - N/A   Clear
8:15 PM 35.1 °F 31.0 °F 23.7 °F 63% 29.93 in 10.0 mi WSW 4.6 mph - N/A   Clear
8:35 PM 40.5 °F 37.3 °F 23.9 °F 52% 29.93 in 10.0 mi SSW 4.6 mph - N/A   Clear
8:55 PM 38.3 °F 35.9 °F 23.7 °F 56% 29.91 in 10.0 mi WSW 3.5 mph - N/A   Clear
9:15 PM 37.0 °F 34.5 °F 23.5 °F 58% 29.91 in 10.0 mi SSW 3.5 mph - N/A   Clear
9:35 PM 36.1 °F 32.3 °F 23.7 °F 61% 29.91 in 10.0 mi SSW 4.6 mph - N/A   Clear
9:55 PM 36.1 °F 33.5 °F 23.5 °F 60% 29.91 in 10.0 mi SSW 3.5 mph - N/A   Clear
10:15 PM 36.9 °F 33.1 °F 23.0 °F 57% 29.92 in 10.0 mi SW 4.6 mph - N/A   Clear
10:35 PM 36.7 °F 32.9 °F 23.0 °F 58% 29.91 in 10.0 mi WSW 4.6 mph - N/A   Clear
10:55 PM 37.6 °F 34.0 °F 23.0 °F 56% 29.92 in 10.0 mi West 4.6 mph - N/A   Clear
11:15 PM 37.8 °F 34.2 °F 23.0 °F 55% 29.91 in 10.0 mi WSW 4.6 mph - N/A   Clear
11:35 PM 37.4 °F 33.8 °F 23.0 °F 56% 29.90 in 10.0 mi WSW 4.6 mph - N/A   Clear
11:55 PM 37.2 °F 33.6 °F 23.2 °F 57% 29.89 in 10.0 mi SW 4.6 mph - N/A   Clear